Location: Brienzwiler
(46.7508°N, 8.1014°E)
Time: 17:06:24
(UTC+00:00)

Cosmos 1869 - Pass Details

Date: 05 July 2020
Orbit: 520 x 563 km, 82.5° (Epoch: 10 August)

Event Time Altitude Azimuth Distance (km) Brightness Sun altitude
Rises 22:01:14 0° 345° (NNW) 2,701 8.6 -17.6°
Reaches altitude 10° 22:03:26 10° 340° (NNW) 1,812 7.3 -17.7°
Maximum altitude 22:07:16 47° 266° (W) 727 4.0 -18.0°
Enters shadow 22:08:54 29° 210° (SSW) 1,018 4.3 -18.1°
